Regional Weather Roundup
Issued by NWS

Home | Current Version | Previous Version | Text Only | Print | Product List | Glossary On
Versions: 1 2 3 4 5 6 7 8 9 10 11 12 13 14 15 16 17 18 19 20 21 22 23 24 25 26 27 28 29 30 31 32 33 34 35 36 37 38 39 40 41 42 43 44 45 46 47 48 49 50
445
ASUS44 KLIX 221405
RWRLA
LOUISIANA WEATHER ROUNDUP
NATIONAL WEATHER SERVICE NEW ORLEANS LA
800 AM CST MON DEC 22 2014

NOTE: "FAIR" INDICATES FEW OR NO CLOUDS BELOW 12,000 FEET WITH NO
      SIGNIFICANT WEATHER AND/OR OBSTRUCTIONS TO VISIBILITY.
      SKY/WX - SKY CONDITION AND SIGNIFICANT WEATHER.
      TMP - AIR TEMPERATURE.    DP   - DEWPOINT TEMPERATURE.
      RH  - RELATIVE HUMIDITY.  PRES - PRESSURE.
      HX  - HEAT INDEX.         WCI  - WIND CHILL INDEX.

*  THESE STATIONS ARE NOT NWS OR FAA STATIONS AND ARE NOT UNDER
   NWS QUALITY CONTROL.

LAZ040-048-061>063-065-066-069-221500-
SOUTHEAST LOUISIANA

CITY           SKY/WX    TMP DP  RH WIND       PRES   REMARKS
N.O. AUDUBON     N/A     59  59 100 MISG        N/A
N.O. INTL ARPT LGT RAIN  60  58  92 NE3       29.84S FOG
N.O. LAKEFRONT HVY RAIN  59  57  93 N8        29.85S VSB 1/2
N.O. DOWNTOWN* CLOUDY    59  55  88 SE5       29.86R
SLIDELL        CLOUDY    59  57  93 E3        29.85S FOG
BATON ROUGE    FOG       56  55  97 E6        29.82F VSB 1/4
BOOTHVILLE     CLOUDY    64  63  96 CALM      29.86S
BELLE CHASSE   RAIN      61  59  93 NE3       29.85S VSB 1
BOGALUSA*      FOG       59  56  92 CALM      29.87S VSB 1/4
GALLIANO*      CLOUDY    55  55  99 MISG      29.85S FOG
NEW ROADS*     FOG       55  55  99 SE5       29.82S VSB 1/4
GONZALES*      FOG       58  58 100 MISG      29.83S VSB 1/4
HAMMOND*       NOT AVBL
HOUMA*         PTSUNNY   59  59 100 CALM      29.84S FOG
PORT FOURCHON* CLOUDY    64  63  94 CALM      29.88S FOG

$$

LAZ041-044-053-054-221500-
SOUTHWEST LOUISIANA

CITY           SKY/WX    TMP DP  RH WIND       PRES   REMARKS
LAKE CHARLES   FOG       54  54 100 E5        29.79S VSB 1/4
LAFAYETTE      FOG       54  54 100 CALM      29.81S VSB<1/4
PATTERSON      CLOUDY    57  55  94 E5        29.83F VSB<1/4
SALT POINT       N/A     60  57  89 CALM      29.81F
NEW IBERIA     FOG       56  55  97 SE6       29.82F VSB<1/4
CHENAULT AIRPK NOT AVBL

$$

LAZ027-028-221500-
CENTRAL LOUISIANA

CITY           SKY/WX    TMP DP  RH WIND       PRES   REMARKS
FORT POLK      FOG       52  51  99 SE6       29.78F VSB 1/4
ALEXANDRIA INT FOG       52  52 100 SE5       29.79F VSB 1/4
ALEXANDRIA     CLOUDY    52  52 100 S3        29.80F

$$

LAZ001-002-221500-
NORTHWEST LOUISIANA

CITY           SKY/WX    TMP DP  RH WIND       PRES   REMARKS
SHREVEPORT     CLOUDY    52  50  93 SE9       29.72F FOG
BARKSDALE AFB  NOT AVBL
DTN SHREVEPORT CLOUDY    51  48  89 SE10      29.73F

$$

LAZ014-016-221500-
NORTHEAST LOUISIANA

CITY           SKY/WX    TMP DP  RH WIND       PRES   REMARKS
MONROE         FOG       51  51 100 S6        29.81F VSB 1
TALLULAH       FOG       54  52  93 SE7       29.83S VSB 1

$$




USA.gov is the U.S. government's official web portal to all federal, state and local government web resources and services.